Skip Page Navigation
NASA JPL Caltech
NASA Logo - Jet Propulsion Laboratory + View the NASA Portal
+ Center for Near-Earth Object Studies
JPL Home Earth Solar System Stars & Galaxies Technology
JPL Solar System Dynamics
BODIES ORBITS EPHEMERIDES TOOLS PHYSICAL DATA DISCOVERY FAQ SITE MAP
IMPORTANT: The SSD Announcement email list is now available. Major changes are coming in the near future, including possible hostname and/or URL changes. To be notified of such changes, subscribe to this email list.

Please visit this page for more details.


JPL Small-Body Database Browser
Search: [ help ]  
447097 (2004 TL119)
Classification: Main-belt Asteroid          SPK-ID: 2447097
Ephemeris | Orbit Diagram | Orbital Elements | Mission Design | Physical Parameters | Discovery Circumstances ]

[ show orbit diagram ]
Orbital Elements at Epoch 2458600.5 (2019-Apr-27.0) TDB
Reference: JPL 12 (heliocentric ecliptic J2000)
 Element Value Uncertainty (1-sigma)   Units 
e .2549953417405464 1.5103e-07  
a 2.379871302597168 2.1155e-08 au
q 1.773015206492884 3.6129e-07 au
i 11.74003534439886 1.6487e-05 deg
node 63.26452736692033 5.311e-05 deg
peri 303.5621575575823 5.5741e-05 deg
M 353.1849014282342 1.7756e-05 deg
tp 2458625.886233834924
(2019-May-22.38623384)
6.6266e-05 TDB
period 1340.999559189764
3.67
1.7881e-05
4.896e-08
d
yr
n .2684564640852776 3.5796e-09 deg/d
Q 2.986727398701452 2.655e-08 au
  Orbit Determination Parameters
   # obs. used (total)      164  
   data-arc span      4988 days (13.66 yr)  
   first obs. used      2004-09-21  
   last obs. used      2018-05-19  
   planetary ephem.      DE431  
   SB-pert. ephem.      SB431-N16  
   condition code      0  
   norm. resid. RMS      .4856  
   source      ORB  
   producer      Otto Matic  
   solution date      2018-May-31 17:31:29  

Additional Information
 Earth MOID = .802954 au 
 Jupiter MOID = 2.53738 au 
 T_jup = 3.467 
[ show covariance matrix ]

Ephemeris | Orbit Diagram | Orbital Elements | Mission Design | Physical Parameters | Discovery Circumstances ]

Physical Parameter Table
Parameter Symbol Value Units Sigma Reference Notes
absolute magnitude H 17.5   n/a MPO450458  

447097 (2004 TL119)          Discovered 2004-Sep-21 by LONEOS at Anderson Mesa
Reference: Last Updated: 2015-10-28
Ephemeris | Orbit Diagram | Orbital Elements | Mission Design | Physical Parameters | Discovery Circumstances ]
ABOUT SSD CREDITS/AWARDS PRIVACY/COPYRIGHT GLOSSARY LINKS
FirstGov
(server date/time)  
NASA Home Page
Site Manager:   Ryan S. Park
Webmaster  Alan B. Chamberlin